Voltar ao catálogo

STARLINK-36186

AtivoComunicaçõesVLEO
NORAD 67165·PAYLOAD·🇺🇸 United States

Lançado Dec 17, 2025 de Cape Canaveral Space Force Station

Loading…

Próximas Passagens (próximas 24 horas)

TLE

AtualizadoSource: CelesTrak SupGP

Época: Sep 15, 2026, 04:04 UTC

1 67165C 25303C   26258.16993056  .00025923  00000+0  93869-3 0  2586
2 67165  43.0016 320.3139 0001398 259.0660 236.4616 15.27573427    13

Acompanhe STARLINK-36186 em tempo real com AllMySat

Download on the App Store